Year,Month,Day,Hour,Minute,Value (Times are PST for temperature in C)
2016,06,01,00,00,16.30
2016,06,01,00,01,16.30
2016,06,01,00,02,16.30
2016,06,01,00,03,16.20
2016,06,01,00,04,16.20
2016,06,01,00,05,16.20
2016,06,01,00,06,16.20
2016,06,01,00,07,16.20
2016,06,01,00,08,16.20
2016,06,01,00,09,16.20
2016,06,01,00,10,16.10
2016,06,01,00,11,16.10
2016,06,01,00,12,16.10
2016,06,01,00,13,16.10
2016,06,01,00,14,16.10
2016,06,01,00,15,16.10
2016,06,01,00,16,16.10
2016,06,01,00,17,16.10
2016,06,01,00,18,16.10
2016,06,01,00,19,16.00
2016,06,01,00,20,16.00
2016,06,01,00,21,16.00
2016,06,01,00,22,16.00
2016,06,01,00,23,16.00
2016,06,01,00,24,15.90
2016,06,01,00,25,15.90
2016,06,01,00,26,15.90
2016,06,01,00,27,15.90
2016,06,01,00,28,15.90
2016,06,01,00,29,15.90
2016,06,01,00,30,15.90
2016,06,01,00,31,15.90
2016,06,01,00,32,15.80
2016,06,01,00,33,15.80
2016,06,01,00,34,15.80
2016,06,01,00,35,15.80
2016,06,01,00,36,15.80
2016,06,01,00,37,15.80
2016,06,01,00,38,15.80
2016,06,01,00,39,15.80
2016,06,01,00,40,15.80
2016,06,01,00,41,15.80
2016,06,01,00,42,15.80
2016,06,01,00,43,15.80
2016,06,01,00,44,15.80
2016,06,01,00,45,15.70
2016,06,01,00,46,15.70
2016,06,01,00,47,15.70
2016,06,01,00,48,15.70
2016,06,01,00,49,15.70
2016,06,01,00,50,15.70
2016,06,01,00,51,15.70
2016,06,01,00,52,15.70
2016,06,01,00,53,15.60
2016,06,01,00,54,15.60
2016,06,01,00,55,15.60
2016,06,01,00,56,15.60
2016,06,01,00,57,15.60
2016,06,01,00,58,15.50
2016,06,01,00,59,15.50
2016,06,01,01,00,15.50
2016,06,01,01,01,15.50
2016,06,01,01,02,15.50
2016,06,01,01,03,15.50
2016,06,01,01,04,15.50
2016,06,01,01,05,15.50
2016,06,01,01,06,15.50
2016,06,01,01,07,15.50
2016,06,01,01,08,15.50
2016,06,01,01,09,15.50
2016,06,01,01,10,15.50
2016,06,01,01,11,15.50
2016,06,01,01,12,15.50
2016,06,01,01,13,15.50
2016,06,01,01,14,15.50
2016,06,01,01,15,15.40
2016,06,01,01,16,15.40
2016,06,01,01,17,15.40
2016,06,01,01,18,15.40
2016,06,01,01,19,15.40
2016,06,01,01,20,15.40
2016,06,01,01,21,15.40
2016,06,01,01,22,15.40
2016,06,01,01,23,15.40
2016,06,01,01,24,15.40
2016,06,01,01,25,15.40
2016,06,01,01,26,15.40
2016,06,01,01,27,15.40
2016,06,01,01,28,15.40
2016,06,01,01,29,15.40
2016,06,01,01,30,15.40
2016,06,01,01,31,15.40
2016,06,01,01,32,15.40
2016,06,01,01,33,15.40
2016,06,01,01,34,15.30
2016,06,01,01,35,15.30
2016,06,01,01,36,15.30
2016,06,01,01,37,15.30
2016,06,01,01,38,15.30
2016,06,01,01,39,15.30
2016,06,01,01,40,15.30
2016,06,01,01,41,15.30
2016,06,01,01,42,15.30
2016,06,01,01,43,15.30
2016,06,01,01,44,15.30
2016,06,01,01,45,15.30
2016,06,01,01,46,15.30
2016,06,01,01,47,15.30
2016,06,01,01,48,15.30
2016,06,01,01,49,15.30
2016,06,01,01,50,15.30
2016,06,01,01,51,15.20
2016,06,01,01,52,15.20
2016,06,01,01,53,15.20
2016,06,01,01,54,15.20
2016,06,01,01,55,15.20
2016,06,01,01,56,15.10
2016,06,01,01,57,15.10
2016,06,01,01,58,15.10
2016,06,01,01,59,15.10
2016,06,01,02,00,15.10
2016,06,01,02,01,15.00
2016,06,01,02,02,15.00
2016,06,01,02,03,15.00
2016,06,01,02,04,15.00
2016,06,01,02,05,15.00
2016,06,01,02,06,14.90
2016,06,01,02,07,14.90
2016,06,01,02,08,14.90
2016,06,01,02,09,14.90
2016,06,01,02,10,14.90
2016,06,01,02,11,14.90
2016,06,01,02,12,14.90
2016,06,01,02,13,14.90
2016,06,01,02,14,14.90
2016,06,01,02,15,14.90
2016,06,01,02,16,14.90
2016,06,01,02,17,14.90
2016,06,01,02,18,14.90
2016,06,01,02,19,14.90
2016,06,01,02,20,14.90
2016,06,01,02,21,14.90
2016,06,01,02,22,14.90
2016,06,01,02,23,14.90
2016,06,01,02,24,14.90
2016,06,01,02,25,14.90
2016,06,01,02,26,14.90
2016,06,01,02,27,14.90
2016,06,01,02,28,14.90
2016,06,01,02,29,14.90
2016,06,01,02,30,15.00
2016,06,01,02,31,15.00
2016,06,01,02,32,15.10
2016,06,01,02,33,15.10
2016,06,01,02,34,15.20
2016,06,01,02,35,15.30
2016,06,01,02,36,15.30
2016,06,01,02,37,15.50
2016,06,01,02,38,15.60
2016,06,01,02,39,15.80
2016,06,01,02,40,16.00
2016,06,01,02,41,16.20
2016,06,01,02,42,16.40
2016,06,01,02,43,16.60
2016,06,01,02,44,16.70
2016,06,01,02,45,16.80
2016,06,01,02,46,16.90
2016,06,01,02,47,17.00
2016,06,01,02,48,17.10
2016,06,01,02,49,17.20
2016,06,01,02,50,17.20
2016,06,01,02,51,17.30
2016,06,01,02,52,17.30
2016,06,01,02,53,17.40
2016,06,01,02,54,17.40
2016,06,01,02,55,17.50
2016,06,01,02,56,17.50
2016,06,01,02,57,17.60
2016,06,01,02,58,17.60
2016,06,01,02,59,17.60
2016,06,01,03,00,17.60
2016,06,01,03,01,17.60
2016,06,01,03,02,17.60
2016,06,01,03,03,17.60
2016,06,01,03,04,17.60
2016,06,01,03,05,17.60
2016,06,01,03,06,17.60
2016,06,01,03,07,17.60
2016,06,01,03,08,17.60
2016,06,01,03,09,17.60
2016,06,01,03,10,17.60
2016,06,01,03,11,17.60
2016,06,01,03,12,17.60
2016,06,01,03,13,17.60
2016,06,01,03,14,17.60
2016,06,01,03,15,17.60
2016,06,01,03,16,17.60
2016,06,01,03,17,17.60
2016,06,01,03,18,17.60
2016,06,01,03,19,17.60
2016,06,01,03,20,17.50
2016,06,01,03,21,17.50
2016,06,01,03,22,17.40
2016,06,01,03,23,17.40
2016,06,01,03,24,17.30
2016,06,01,03,25,17.20
2016,06,01,03,26,17.10
2016,06,01,03,27,17.00
2016,06,01,03,28,17.00
2016,06,01,03,29,16.90
2016,06,01,03,30,16.80
2016,06,01,03,31,16.80
2016,06,01,03,32,16.70
2016,06,01,03,33,16.60
2016,06,01,03,34,16.50
2016,06,01,03,35,16.40
2016,06,01,03,36,16.30
2016,06,01,03,37,16.30
2016,06,01,03,38,16.20
2016,06,01,03,39,16.10
2016,06,01,03,40,16.10
2016,06,01,03,41,16.00
2016,06,01,03,42,15.90
2016,06,01,03,43,15.80
2016,06,01,03,44,15.70
2016,06,01,03,45,15.60
2016,06,01,03,46,15.60
2016,06,01,03,47,15.50
2016,06,01,03,48,15.40
2016,06,01,03,49,15.40
2016,06,01,03,50,15.30
2016,06,01,03,51,15.20
2016,06,01,03,52,15.20
2016,06,01,03,53,15.10
2016,06,01,03,54,15.10
2016,06,01,03,55,15.00
2016,06,01,03,56,14.90
2016,06,01,03,57,14.90
2016,06,01,03,58,14.80
2016,06,01,03,59,14.80
2016,06,01,04,00,14.70
2016,06,01,04,01,14.70
2016,06,01,04,02,14.70
2016,06,01,04,03,14.60
2016,06,01,04,04,14.60
2016,06,01,04,05,14.60
2016,06,01,04,06,14.60
2016,06,01,04,07,14.60
2016,06,01,04,08,14.50
2016,06,01,04,09,14.50
2016,06,01,04,10,14.50
2016,06,01,04,11,14.50
2016,06,01,04,12,14.50
2016,06,01,04,13,14.50
2016,06,01,04,14,14.50
2016,06,01,04,15,14.50
2016,06,01,04,16,14.50
2016,06,01,04,17,14.50
2016,06,01,04,18,14.50
2016,06,01,04,19,14.60
2016,06,01,04,20,14.60
2016,06,01,04,21,14.60
2016,06,01,04,22,14.60
2016,06,01,04,23,14.60
2016,06,01,04,24,14.60
2016,06,01,04,25,14.60
2016,06,01,04,26,14.60
2016,06,01,04,27,14.60
2016,06,01,04,28,14.60
2016,06,01,04,29,14.60
2016,06,01,04,30,14.60
2016,06,01,04,31,14.60
2016,06,01,04,32,14.60
2016,06,01,04,33,14.60
2016,06,01,04,34,14.60
2016,06,01,04,35,14.60
2016,06,01,04,36,14.60
2016,06,01,04,37,14.60
2016,06,01,04,38,14.60
2016,06,01,04,39,14.60
2016,06,01,04,40,14.60
2016,06,01,04,41,14.50
2016,06,01,04,42,14.60
2016,06,01,04,43,14.50
2016,06,01,04,44,14.50
2016,06,01,04,45,14.50
2016,06,01,04,46,14.50
2016,06,01,04,47,14.50
2016,06,01,04,48,14.50
2016,06,01,04,49,14.50
2016,06,01,04,50,14.50
2016,06,01,04,51,14.40
2016,06,01,04,52,14.40
2016,06,01,04,53,14.40
2016,06,01,04,54,14.40
2016,06,01,04,55,14.40
2016,06,01,04,56,14.40
2016,06,01,04,57,14.40
2016,06,01,04,58,14.50
2016,06,01,04,59,14.50
2016,06,01,05,00,14.50
2016,06,01,05,01,14.50
2016,06,01,05,02,14.50
2016,06,01,05,03,14.50
2016,06,01,05,04,14.50
2016,06,01,05,05,14.40
2016,06,01,05,06,14.40
2016,06,01,05,07,14.40
2016,06,01,05,08,14.40
2016,06,01,05,09,14.40
2016,06,01,05,10,14.30
2016,06,01,05,11,14.30
2016,06,01,05,12,14.30
2016,06,01,05,13,14.20
2016,06,01,05,14,14.20
2016,06,01,05,15,14.20
2016,06,01,05,16,14.10
2016,06,01,05,17,14.10
2016,06,01,05,18,14.10
2016,06,01,05,19,14.00
2016,06,01,05,20,14.00
2016,06,01,05,21,13.90
2016,06,01,05,22,13.90
2016,06,01,05,23,13.80
2016,06,01,05,24,13.80
2016,06,01,05,25,13.80
2016,06,01,05,26,13.70
2016,06,01,05,27,13.70
2016,06,01,05,28,13.70
2016,06,01,05,29,13.70
2016,06,01,05,30,13.60
2016,06,01,05,31,13.60
2016,06,01,05,32,13.60
2016,06,01,05,33,13.60
2016,06,01,05,34,13.60
2016,06,01,05,35,13.60
2016,06,01,05,36,13.60
2016,06,01,05,37,13.60
2016,06,01,05,38,13.60
2016,06,01,05,39,13.60
2016,06,01,05,40,13.60
2016,06,01,05,41,13.60
2016,06,01,05,42,13.60
2016,06,01,05,43,13.60
2016,06,01,05,44,13.60
2016,06,01,05,45,13.60
2016,06,01,05,46,13.60
2016,06,01,05,47,13.70
2016,06,01,05,48,13.70
2016,06,01,05,49,13.70
2016,06,01,05,50,13.70
2016,06,01,05,51,13.70
2016,06,01,05,52,13.70
2016,06,01,05,53,13.80
2016,06,01,05,54,13.80
2016,06,01,05,55,13.80
2016,06,01,05,56,13.90
2016,06,01,05,57,13.90
2016,06,01,05,58,13.90
2016,06,01,05,59,14.00
2016,06,01,06,00,14.00
2016,06,01,06,01,14.10
2016,06,01,06,02,14.10
2016,06,01,06,03,14.10
2016,06,01,06,04,14.20
2016,06,01,06,05,14.20
2016,06,01,06,06,14.20
2016,06,01,06,07,14.30
2016,06,01,06,08,14.30
2016,06,01,06,09,14.30
2016,06,01,06,10,14.30
2016,06,01,06,11,14.40
2016,06,01,06,12,14.40
2016,06,01,06,13,14.40
2016,06,01,06,14,14.40
2016,06,01,06,15,14.40
2016,06,01,06,16,14.40
2016,06,01,06,17,14.40
2016,06,01,06,18,14.40
2016,06,01,06,19,14.40
2016,06,01,06,20,14.40
2016,06,01,06,21,14.40
2016,06,01,06,22,14.40
2016,06,01,06,23,14.40
2016,06,01,06,24,14.30
2016,06,01,06,25,14.30
2016,06,01,06,26,14.30
2016,06,01,06,27,14.20
2016,06,01,06,28,14.20
2016,06,01,06,29,14.10
2016,06,01,06,30,14.10
2016,06,01,06,31,14.00
2016,06,01,06,32,13.90
2016,06,01,06,33,13.90
2016,06,01,06,34,13.80
2016,06,01,06,35,13.80
2016,06,01,06,36,13.80
2016,06,01,06,37,13.70
2016,06,01,06,38,13.70
2016,06,01,06,39,13.70
2016,06,01,06,40,13.70
2016,06,01,06,41,13.60
2016,06,01,06,42,13.60
2016,06,01,06,43,13.60
2016,06,01,06,44,13.60
2016,06,01,06,45,13.50
2016,06,01,06,46,13.50
2016,06,01,06,47,13.50
2016,06,01,06,48,13.50
2016,06,01,06,49,13.50
2016,06,01,06,50,13.50
2016,06,01,06,51,13.50
2016,06,01,06,52,13.50
2016,06,01,06,53,13.50
2016,06,01,06,54,13.50
2016,06,01,06,55,13.60
2016,06,01,06,56,13.60
2016,06,01,06,57,13.60
2016,06,01,06,58,13.60
2016,06,01,06,59,13.70
2016,06,01,07,00,13.70
2016,06,01,07,01,13.70
2016,06,01,07,02,13.70
2016,06,01,07,03,13.70
2016,06,01,07,04,13.70
2016,06,01,07,05,13.70
2016,06,01,07,06,13.70
2016,06,01,07,07,13.70
2016,06,01,07,08,13.70
2016,06,01,07,09,13.70
2016,06,01,07,10,13.70
2016,06,01,07,11,13.70
2016,06,01,07,12,13.70
2016,06,01,07,13,13.70
2016,06,01,07,14,13.70
2016,06,01,07,15,13.70
2016,06,01,07,16,13.70
2016,06,01,07,17,13.70
2016,06,01,07,18,13.70
2016,06,01,07,19,13.70
2016,06,01,07,20,13.70
2016,06,01,07,21,13.70
2016,06,01,07,22,13.70
2016,06,01,07,23,13.70
2016,06,01,07,24,13.60
2016,06,01,07,25,13.70
2016,06,01,07,26,13.70
2016,06,01,07,27,13.70
2016,06,01,07,28,13.70
2016,06,01,07,29,13.70
2016,06,01,07,30,13.70
2016,06,01,07,31,13.70
2016,06,01,07,32,13.70
2016,06,01,07,33,13.70
2016,06,01,07,34,13.70
2016,06,01,07,35,13.70
2016,06,01,07,36,13.70
2016,06,01,07,37,13.70
2016,06,01,07,38,13.70
2016,06,01,07,39,13.70
2016,06,01,07,40,13.70
2016,06,01,07,41,13.70
2016,06,01,07,42,13.70
2016,06,01,07,43,13.70
2016,06,01,07,44,13.70
2016,06,01,07,45,13.70
2016,06,01,07,46,13.70
2016,06,01,07,47,13.70
2016,06,01,07,48,13.70
2016,06,01,07,49,13.70
2016,06,01,07,50,13.80
2016,06,01,07,51,13.80
2016,06,01,07,52,13.80
2016,06,01,07,53,13.80
2016,06,01,07,54,13.80
2016,06,01,07,55,13.80
2016,06,01,07,56,13.80
2016,06,01,07,57,13.90
2016,06,01,07,58,13.90
2016,06,01,07,59,13.90
2016,06,01,08,00,14.00
2016,06,01,08,01,14.00
2016,06,01,08,02,14.10
2016,06,01,08,03,14.10
2016,06,01,08,04,14.10
2016,06,01,08,05,14.20
2016,06,01,08,06,14.20
2016,06,01,08,07,14.30
2016,06,01,08,08,14.30
2016,06,01,08,09,14.40
2016,06,01,08,10,14.40
2016,06,01,08,11,14.50
2016,06,01,08,12,14.50
2016,06,01,08,13,14.60
2016,06,01,08,14,14.60
2016,06,01,08,15,14.70
2016,06,01,08,16,14.70
2016,06,01,08,17,14.70
2016,06,01,08,18,14.80
2016,06,01,08,19,14.80
2016,06,01,08,20,14.80
2016,06,01,08,21,14.80
2016,06,01,08,22,14.90
2016,06,01,08,23,14.90
2016,06,01,08,24,14.90
2016,06,01,08,25,14.90
2016,06,01,08,26,14.90
2016,06,01,08,27,14.90
2016,06,01,08,28,15.00
2016,06,01,08,29,15.00
2016,06,01,08,30,15.10
2016,06,01,08,31,15.10
2016,06,01,08,32,15.20
2016,06,01,08,33,15.20
2016,06,01,08,34,15.20
2016,06,01,08,35,15.20
2016,06,01,08,36,15.20
2016,06,01,08,37,15.30
2016,06,01,08,38,15.30
2016,06,01,08,39,15.30
2016,06,01,08,40,15.30
2016,06,01,08,41,15.30
2016,06,01,08,42,15.30
2016,06,01,08,43,15.30
2016,06,01,08,44,15.30
2016,06,01,08,45,15.30
2016,06,01,08,46,15.30
2016,06,01,08,47,15.30
2016,06,01,08,48,15.30
2016,06,01,08,49,15.30
2016,06,01,08,50,15.30
2016,06,01,08,51,15.30
2016,06,01,08,52,15.30
2016,06,01,08,53,15.30
2016,06,01,08,54,15.30
2016,06,01,08,55,15.40
2016,06,01,08,56,15.40
2016,06,01,08,57,15.40
2016,06,01,08,58,15.50
2016,06,01,08,59,15.50
2016,06,01,09,00,15.50
2016,06,01,09,01,15.50
2016,06,01,09,02,15.40
2016,06,01,09,03,15.40
2016,06,01,09,04,15.40
2016,06,01,09,05,15.40
2016,06,01,09,06,15.40
2016,06,01,09,07,15.50
2016,06,01,09,08,15.50
2016,06,01,09,09,15.50
2016,06,01,09,10,15.50
2016,06,01,09,11,15.50
2016,06,01,09,12,15.60
2016,06,01,09,13,15.60
2016,06,01,09,14,15.60
2016,06,01,09,15,15.60
2016,06,01,09,16,15.70
2016,06,01,09,17,15.70
2016,06,01,09,18,15.70
2016,06,01,09,19,15.70
2016,06,01,09,20,15.70
2016,06,01,09,21,15.70
2016,06,01,09,22,15.80
2016,06,01,09,23,15.80
2016,06,01,09,24,15.80
2016,06,01,09,25,15.90
2016,06,01,09,26,15.90
2016,06,01,09,27,15.90
2016,06,01,09,28,16.00
2016,06,01,09,29,16.00
2016,06,01,09,30,16.10
2016,06,01,09,31,16.20
2016,06,01,09,32,16.20
2016,06,01,09,33,16.30
2016,06,01,09,34,16.30
2016,06,01,09,35,16.40
2016,06,01,09,36,16.40
2016,06,01,09,37,16.40
2016,06,01,09,38,16.50
2016,06,01,09,39,16.50
2016,06,01,09,40,16.60
2016,06,01,09,41,16.60
2016,06,01,09,42,16.70
2016,06,01,09,43,16.70
2016,06,01,09,44,16.80
2016,06,01,09,45,16.80
2016,06,01,09,46,16.90
2016,06,01,09,47,16.90
2016,06,01,09,48,17.00
2016,06,01,09,49,17.00
2016,06,01,09,50,17.00
2016,06,01,09,51,17.00
2016,06,01,09,52,17.00
2016,06,01,09,53,16.90
2016,06,01,09,54,16.90
2016,06,01,09,55,16.90
2016,06,01,09,56,16.90
2016,06,01,09,57,16.90
2016,06,01,09,58,16.90
2016,06,01,09,59,17.00
2016,06,01,10,00,17.00
2016,06,01,10,01,17.00
2016,06,01,10,02,17.00
2016,06,01,10,03,17.10
2016,06,01,10,04,17.10
2016,06,01,10,05,17.10
2016,06,01,10,06,17.20
2016,06,01,10,07,17.20
2016,06,01,10,08,17.30
2016,06,01,10,09,17.30
2016,06,01,10,10,17.40
2016,06,01,10,11,17.50
2016,06,01,10,12,17.50
2016,06,01,10,13,17.60
2016,06,01,10,14,17.60
2016,06,01,10,15,17.60
2016,06,01,10,16,17.70
2016,06,01,10,17,17.70
2016,06,01,10,18,17.70
2016,06,01,10,19,17.80
2016,06,01,10,20,17.90
2016,06,01,10,21,18.00
2016,06,01,10,22,18.00
2016,06,01,10,23,18.10
2016,06,01,10,24,18.10
2016,06,01,10,25,18.20
2016,06,01,10,26,18.30
2016,06,01,10,27,18.30
2016,06,01,10,28,18.30
2016,06,01,10,29,18.40
2016,06,01,10,30,18.50
2016,06,01,10,31,18.60
2016,06,01,10,32,18.60
2016,06,01,10,33,18.70
2016,06,01,10,34,18.80
2016,06,01,10,35,18.80
2016,06,01,10,36,18.90
2016,06,01,10,37,18.90
2016,06,01,10,38,19.00
2016,06,01,10,39,19.10
2016,06,01,10,40,19.10
2016,06,01,10,41,19.20
2016,06,01,10,42,19.20
2016,06,01,10,43,19.20
2016,06,01,10,44,19.10
2016,06,01,10,45,19.10
2016,06,01,10,46,19.00
2016,06,01,10,47,18.90
2016,06,01,10,48,18.90
2016,06,01,10,49,19.00
2016,06,01,10,50,19.00
2016,06,01,10,51,19.00
2016,06,01,10,52,19.10
2016,06,01,10,53,19.10
2016,06,01,10,54,19.10
2016,06,01,10,55,19.20
2016,06,01,10,56,19.20
2016,06,01,10,57,19.30
2016,06,01,10,58,19.30
2016,06,01,10,59,19.30
2016,06,01,11,00,19.30
2016,06,01,11,01,19.20
2016,06,01,11,02,19.20
2016,06,01,11,03,19.10
2016,06,01,11,04,19.10
2016,06,01,11,05,19.00
2016,06,01,11,06,19.00
2016,06,01,11,07,19.10
2016,06,01,11,08,19.10
2016,06,01,11,09,19.10
2016,06,01,11,10,19.10
2016,06,01,11,11,19.10
2016,06,01,11,12,19.10
2016,06,01,11,13,19.10
2016,06,01,11,14,19.10
2016,06,01,11,15,19.10
2016,06,01,11,16,19.10
2016,06,01,11,17,19.20
2016,06,01,11,18,19.20
2016,06,01,11,19,19.20
2016,06,01,11,20,19.20
2016,06,01,11,21,19.30
2016,06,01,11,22,19.30
2016,06,01,11,23,19.30
2016,06,01,11,24,19.30
2016,06,01,11,25,19.40
2016,06,01,11,26,19.40
2016,06,01,11,27,19.50
2016,06,01,11,28,19.60
2016,06,01,11,29,19.60
2016,06,01,11,30,19.70
2016,06,01,11,31,19.70
2016,06,01,11,32,19.70
2016,06,01,11,33,19.70
2016,06,01,11,34,19.70
2016,06,01,11,35,19.80
2016,06,01,11,36,19.80
2016,06,01,11,37,19.90
2016,06,01,11,38,20.00
2016,06,01,11,39,20.00
2016,06,01,11,40,20.10
2016,06,01,11,41,20.10
2016,06,01,11,42,20.20
2016,06,01,11,43,20.20
2016,06,01,11,44,20.30
2016,06,01,11,45,20.40
2016,06,01,11,46,20.50
2016,06,01,11,47,20.50
2016,06,01,11,48,20.60
2016,06,01,11,49,20.60
2016,06,01,11,50,20.70
2016,06,01,11,51,20.70
2016,06,01,11,52,20.70
2016,06,01,11,53,20.70
2016,06,01,11,54,20.70
2016,06,01,11,55,20.80
2016,06,01,11,56,20.80
2016,06,01,11,57,20.80
2016,06,01,11,58,20.90
2016,06,01,11,59,20.90
2016,06,01,12,00,20.90
2016,06,01,12,01,20.80
2016,06,01,12,02,20.80
2016,06,01,12,03,20.70
2016,06,01,12,04,20.50
2016,06,01,12,05,20.40
2016,06,01,12,06,20.30
2016,06,01,12,07,20.20
2016,06,01,12,08,20.10
2016,06,01,12,09,20.10
2016,06,01,12,10,20.10
2016,06,01,12,11,20.00
2016,06,01,12,12,19.90
2016,06,01,12,13,19.80
2016,06,01,12,14,19.80
2016,06,01,12,15,19.80
2016,06,01,12,16,19.70
2016,06,01,12,17,19.70
2016,06,01,12,18,19.60
2016,06,01,12,19,19.50
2016,06,01,12,20,19.50
2016,06,01,12,21,19.40
2016,06,01,12,22,19.40
2016,06,01,12,23,19.40
2016,06,01,12,24,19.30
2016,06,01,12,25,19.20
2016,06,01,12,26,19.10
2016,06,01,12,27,19.10
2016,06,01,12,28,19.00
2016,06,01,12,29,18.90
2016,06,01,12,30,18.80
2016,06,01,12,31,18.70
2016,06,01,12,32,18.70
2016,06,01,12,33,18.70
2016,06,01,12,34,18.70
2016,06,01,12,35,18.70
2016,06,01,12,36,18.70
2016,06,01,12,37,18.80
2016,06,01,12,38,18.80
2016,06,01,12,39,18.90
2016,06,01,12,40,18.90
2016,06,01,12,41,19.00
2016,06,01,12,42,19.10
2016,06,01,12,43,19.20
2016,06,01,12,44,19.20
2016,06,01,12,45,19.30
2016,06,01,12,46,19.40
2016,06,01,12,47,19.70
2016,06,01,12,48,19.80
2016,06,01,12,49,20.00
2016,06,01,12,50,20.20
2016,06,01,12,51,20.40
2016,06,01,12,52,20.60
2016,06,01,12,53,20.90
2016,06,01,12,54,21.10
2016,06,01,12,55,21.20
2016,06,01,12,56,21.30
2016,06,01,12,57,21.30
2016,06,01,12,58,21.30
2016,06,01,12,59,21.40
2016,06,01,13,00,21.50
2016,06,01,13,01,21.60
2016,06,01,13,02,21.70
2016,06,01,13,03,21.70
2016,06,01,13,04,21.70
2016,06,01,13,05,21.80
2016,06,01,13,06,22.00
2016,06,01,13,07,22.10
2016,06,01,13,08,22.20
2016,06,01,13,09,22.30
2016,06,01,13,10,22.30
2016,06,01,13,11,22.30
2016,06,01,13,12,22.20
2016,06,01,13,13,22.10
2016,06,01,13,14,22.10
2016,06,01,13,15,22.10
2016,06,01,13,16,22.20
2016,06,01,13,17,22.20
2016,06,01,13,18,22.20
2016,06,01,13,19,22.20
2016,06,01,13,20,22.30
2016,06,01,13,21,22.30
2016,06,01,13,22,22.30
2016,06,01,13,23,22.10
2016,06,01,13,24,21.90
2016,06,01,13,25,21.70
2016,06,01,13,26,21.50
2016,06,01,13,27,21.20
2016,06,01,13,28,21.00
2016,06,01,13,29,20.80
2016,06,01,13,30,20.60
2016,06,01,13,31,20.40
2016,06,01,13,32,20.30
2016,06,01,13,33,20.20
2016,06,01,13,34,20.10
2016,06,01,13,35,20.00
2016,06,01,13,36,20.00
2016,06,01,13,37,19.90
2016,06,01,13,38,19.90
2016,06,01,13,39,19.80
2016,06,01,13,40,19.80
2016,06,01,13,41,19.80
2016,06,01,13,42,19.70
2016,06,01,13,43,19.50
2016,06,01,13,44,19.40
2016,06,01,13,45,19.30
2016,06,01,13,46,19.30
2016,06,01,13,47,19.20
2016,06,01,13,48,19.20
2016,06,01,13,49,19.10
2016,06,01,13,50,19.00
2016,06,01,13,51,19.00
2016,06,01,13,52,18.90
2016,06,01,13,53,18.90
2016,06,01,13,54,19.00
2016,06,01,13,55,19.10
2016,06,01,13,56,19.10
2016,06,01,13,57,19.20
2016,06,01,13,58,19.20
2016,06,01,13,59,19.20
2016,06,01,14,00,19.20
2016,06,01,14,01,19.20
2016,06,01,14,02,19.20
2016,06,01,14,03,19.30
2016,06,01,14,04,19.30
2016,06,01,14,05,19.30
2016,06,01,14,06,19.40
2016,06,01,14,07,19.40
2016,06,01,14,08,19.50
2016,06,01,14,09,19.60
2016,06,01,14,10,19.60
2016,06,01,14,11,19.70
2016,06,01,14,12,19.80
2016,06,01,14,13,19.80
2016,06,01,14,14,19.90
2016,06,01,14,15,19.90
2016,06,01,14,16,20.00
2016,06,01,14,17,20.10
2016,06,01,14,18,20.20
2016,06,01,14,19,20.30
2016,06,01,14,20,20.40
2016,06,01,14,21,20.40
2016,06,01,14,22,20.50
2016,06,01,14,23,20.60
2016,06,01,14,24,20.70
2016,06,01,14,25,20.80
2016,06,01,14,26,20.90
2016,06,01,14,27,21.00
2016,06,01,14,28,21.10
2016,06,01,14,29,21.20
2016,06,01,14,30,21.20
2016,06,01,14,31,21.20
2016,06,01,14,32,21.10
2016,06,01,14,33,21.00
2016,06,01,14,34,21.00
2016,06,01,14,35,20.90
2016,06,01,14,36,20.80
2016,06,01,14,37,20.80
2016,06,01,14,38,20.70
2016,06,01,14,39,20.70
2016,06,01,14,40,20.60
2016,06,01,14,41,20.60
2016,06,01,14,42,20.50
2016,06,01,14,43,20.50
2016,06,01,14,44,20.30
2016,06,01,14,45,20.30
2016,06,01,14,46,20.20
2016,06,01,14,47,20.10
2016,06,01,14,48,20.10
2016,06,01,14,49,20.10
2016,06,01,14,50,20.10
2016,06,01,14,51,20.10
2016,06,01,14,52,20.00
2016,06,01,14,53,20.00
2016,06,01,14,54,20.00
2016,06,01,14,55,19.90
2016,06,01,14,56,19.90
2016,06,01,14,57,19.90
2016,06,01,14,58,19.80
2016,06,01,14,59,19.80
2016,06,01,15,00,19.80
2016,06,01,15,01,19.90
2016,06,01,15,02,19.90
2016,06,01,15,03,19.90
2016,06,01,15,04,19.90
2016,06,01,15,05,20.00
2016,06,01,15,06,20.00
2016,06,01,15,07,20.00
2016,06,01,15,08,20.00
2016,06,01,15,09,20.00
2016,06,01,15,10,19.90
2016,06,01,15,11,19.90
2016,06,01,15,12,19.90
2016,06,01,15,13,19.90
2016,06,01,15,14,19.90
2016,06,01,15,15,19.90
2016,06,01,15,16,19.90
2016,06,01,15,17,19.90
2016,06,01,15,18,20.00
2016,06,01,15,19,19.90
2016,06,01,15,20,19.90
2016,06,01,15,21,19.90
2016,06,01,15,22,19.90
2016,06,01,15,23,19.90
2016,06,01,15,24,19.80
2016,06,01,15,25,19.80
2016,06,01,15,26,19.90
2016,06,01,15,27,19.80
2016,06,01,15,28,19.80
2016,06,01,15,29,19.80
2016,06,01,15,30,19.70
2016,06,01,15,31,19.70
2016,06,01,15,32,19.70
2016,06,01,15,33,19.60
2016,06,01,15,34,19.60
2016,06,01,15,35,19.60
2016,06,01,15,36,19.50
2016,06,01,15,37,19.50
2016,06,01,15,38,19.50
2016,06,01,15,39,19.40
2016,06,01,15,40,19.40
2016,06,01,15,41,19.40
2016,06,01,15,42,19.40
2016,06,01,15,43,19.40
2016,06,01,15,44,19.40
2016,06,01,15,45,19.40
2016,06,01,15,46,19.40
2016,06,01,15,47,19.40
2016,06,01,15,48,19.40
2016,06,01,15,49,19.40
2016,06,01,15,50,19.40
2016,06,01,15,51,19.30
2016,06,01,15,52,19.30
2016,06,01,15,53,19.40
2016,06,01,15,54,19.40
2016,06,01,15,55,19.40
2016,06,01,15,56,19.40
2016,06,01,15,57,19.40
2016,06,01,15,58,19.40
2016,06,01,15,59,19.30
2016,06,01,16,00,19.30
2016,06,01,16,01,19.30
2016,06,01,16,02,19.30
2016,06,01,16,03,19.30
2016,06,01,16,04,19.30
2016,06,01,16,05,19.30
2016,06,01,16,06,19.30
2016,06,01,16,07,19.30
2016,06,01,16,08,19.30
2016,06,01,16,09,19.30
2016,06,01,16,10,19.20
2016,06,01,16,11,19.20
2016,06,01,16,12,19.20
2016,06,01,16,13,19.20
2016,06,01,16,14,19.20
2016,06,01,16,15,19.20
2016,06,01,16,16,19.20
2016,06,01,16,17,19.20
2016,06,01,16,18,19.20
2016,06,01,16,19,19.20
2016,06,01,16,20,19.20
2016,06,01,16,21,19.30
2016,06,01,16,22,19.30
2016,06,01,16,23,19.30
2016,06,01,16,24,19.30
2016,06,01,16,25,19.20
2016,06,01,16,26,19.20
2016,06,01,16,27,19.20
2016,06,01,16,28,19.20
2016,06,01,16,29,19.20
2016,06,01,16,30,19.30
2016,06,01,16,31,19.30
2016,06,01,16,32,19.30
2016,06,01,16,33,19.30
2016,06,01,16,34,19.30
2016,06,01,16,35,19.30
2016,06,01,16,36,19.30
2016,06,01,16,37,19.30
2016,06,01,16,38,19.30
2016,06,01,16,39,19.30
2016,06,01,16,40,19.30
2016,06,01,16,41,19.30
2016,06,01,16,42,19.30
2016,06,01,16,43,19.30
2016,06,01,16,44,19.40
2016,06,01,16,45,19.40
2016,06,01,16,46,19.50
2016,06,01,16,47,19.50
2016,06,01,16,48,19.60
2016,06,01,16,49,19.70
2016,06,01,16,50,19.70
2016,06,01,16,51,19.70
2016,06,01,16,52,19.60
2016,06,01,16,53,19.60
2016,06,01,16,54,19.60
2016,06,01,16,55,19.60
2016,06,01,16,56,19.60
2016,06,01,16,57,19.60
2016,06,01,16,58,19.60
2016,06,01,16,59,19.60
2016,06,01,17,00,19.60
2016,06,01,17,01,19.60
2016,06,01,17,02,19.60
2016,06,01,17,03,19.70
2016,06,01,17,04,19.70
2016,06,01,17,05,19.70
2016,06,01,17,06,19.70
2016,06,01,17,07,19.70
2016,06,01,17,08,19.70
2016,06,01,17,09,19.70
2016,06,01,17,10,19.70
2016,06,01,17,11,19.70
2016,06,01,17,12,19.60
2016,06,01,17,13,19.60
2016,06,01,17,14,19.60
2016,06,01,17,15,19.70
2016,06,01,17,16,19.70
2016,06,01,17,17,19.70
2016,06,01,17,18,19.60
2016,06,01,17,19,19.60